Flag for Switzerland Weather past 2 weeks in Bellinzona, Ticino, Switzerland

Now
67 °F

Mild.


Feels Like: 67 °F
Forecast: 42 / 72 °F
Wind: 21 mph from East

Location: Locarno-Magadino

Current Time: Oct 23, 2014 at 3:34:22 PM

Latest Report: Oct 23, 2014 at 2:00 PM


Visibility: N/A

Pressure: 29.89 "Hg

Humidity: 22%

Dew point: 27 °F

Location of BellinzonaLocation

Historic Weather in Bellinzona — Graph

°F

Bellinzona temperature yesterday

Maximum temperature yesterday: 62 °F (at 2:00 AM)
Minimum temperature yesterday: 47 °F (at 9:00 AM)
Average temperature yesterday: 54 °F

Past Weeks' High & Low Weather Summary

 TemperatureHumidityPressure
High72 °F (Oct 17, 4:00 PM)100% (Oct 9, 3:00 AM)30.33 "Hg (Oct 9, 3:00 AM)
Low47 °F (Oct 22, 9:00 AM)22% (Oct 22, 2:00 AM)29.69 "Hg (Oct 21, 10:00 PM)
Average60 °F84%30.02 "Hg
* Reported Oct 8 2:00 PM — Oct 23 2:00 PM, Bellinzona, Weather by CustomWeather, © 2014

Note: Actual official high and low records may vary slightly from our data, if they occured in-between our weather recording intervals... More about our weather records

Advertising

Bellinzona weather history for previous 24 hours

 ConditionsComfort  
Time TempWeatherWind HumidityBarometerVisibility
2:00 PM
Oct 23
67 °FMild.21 mph22%29.89 "HgN/A
1:00 PM67 °FMild.15 mph23%29.90 "HgN/A
12:00 PM65 °FMild.26 mph23%29.90 "HgN/A
11:00 AM65 °FMild.28 mph25%29.91 "HgN/A
10:00 AM61 °FRefreshingly cool.25 mph27%29.93 "HgN/A
9:00 AM57 °FRefreshingly cool.23 mph32%29.94 "HgN/A
8:00 AM57 °FRefreshingly cool.24 mph32%29.94 "HgN/A
7:00 AM56 °FRefreshingly cool.21 mph32%29.95 "HgN/A
6:00 AM56 °FRefreshingly cool.23 mph32%29.95 "HgN/A
5:00 AM55 °FCool.21 mph34%29.97 "HgN/A
4:00 AM49 °FCool.13 mph53%30.01 "HgN/A
3:00 AM50 °FCool.15 mph53%30.03 "HgN/A
2:00 AM48 °FCool.14 mph61%30.04 "HgN/A
1:00 AM48 °FCool.9 mph58%30.06 "HgN/A
12:00 AM48 °FCool.9 mph56%30.07 "HgN/A
11:00 PM
Oct 22
49 °FCool.12 mph53%30.06 "HgN/A
10:00 PM50 °FCool.7 mph47%30.07 "HgN/A
9:00 PM51 °FCool.3 mph44%30.06 "HgN/A
8:00 PM51 °FCool.8 mph41%30.05 "HgN/A
7:00 PM51 °FCool.5 mph40%30.04 "HgN/A
6:00 PM53 °FCool.5 mph33%30.02 "HgN/A
5:00 PM56 °FRefreshingly cool.7 mph28%30.01 "HgN/A
4:00 PM56 °FRefreshingly cool.14 mph32%30.01 "HgN/A
3:00 PM57 °FRefreshingly cool.17 mph33%29.99 "HgN/A
Weather by CustomWeather, © 2014

See weather overviewHow to use our weather pages